Ahmedabad, India

1:01 PM IST on January 21, 2018 (GMT +0530)
Ahmedabad

Weather History for VAAH - March, 2012

Change the Weather History Date:

Saturday, March 24, 2012

  Actual Average Record
Temperature  
Mean Temperature 81 °F -  
Max Temperature 104 °F 99 °F 107 °F (2016)
Min Temperature 58 °F 73 °F 60 °F (2012)
Cooling Degree Days 16    
Growing Degree Days 31 (Base 50)    
Moisture  
Dew Point 38 °F    
Average Humidity 24    
Maximum Humidity 55    
Minimum Humidity 4    
Precipitation  
Precipitation 0.00 in 0.00 in - ()
Sea Level Pressure  
Sea Level Pressure 29.88 in    
Wind  
Wind Speed 4 mph ()    
Max Wind Speed 7 mph    
Max Gust Speed -    
Visibility 2.6 miles    
Events      
Averages and records for this station are not official NWS values.
T = Trace of Precipitation, MM = Missing Value Source: Averaged Metar Reports

Daily Weather History Graph

Daily Weather History Graph

Search for Another Location

Airport or City:

Trip Planner

Search our weather history database for the weather conditions in past years. The results will help you decide how hot, cold, wet, or windy it might be!

Date:

Astronomy

Mar. 24, 2012 Rise Set
Actual Time 6:39 AM IST 6:52 PM IST
Civil Twilight 6:17 AM IST 7:14 PM IST
Nautical Twilight 5:50 AM IST 7:40 PM IST
Astronomical Twilight 5:24 AM IST 8:07 PM IST
Moon 7:20 AM IST (3/24) 8:25 PM IST (3/24)
Length of Visible Light 12h 57m
Length of Day
12h 12m
Waxing Crescent, 3% of the Moon is Illuminated
Mar 24
Waxing Crescent
Mar 31
First Quarter
Apr 7
Full
Apr 13
Last Quarter
Apr 21
New

Hourly Weather History & Observations

Time (IST) Temp. Dew Point Humidity Pressure Visibility Wind Dir Wind Speed Gust Speed Precip Events Conditions
12:10 AM 77.0 °F 39.2 °F 26% 29.89 in 2.5 mi North 4.6 mph - N/A   Smoke
12:40 AM 75.2 °F 37.4 °F 25% 29.89 in 2.5 mi NNW 4.6 mph - N/A   Smoke
1:10 AM 73.4 °F 41.0 °F 31% 29.89 in 2.5 mi North 4.6 mph - N/A   Smoke
1:40 AM 73.4 °F 39.2 °F 29% 29.89 in 2.5 mi North 5.8 mph - N/A   Smoke
2:10 AM 69.8 °F 41.0 °F 35% 29.89 in 2.5 mi North 5.8 mph - N/A   Smoke
2:30 AM 73 °F 38 °F 17% 29.88 in 2 mi NNW 3.5 mph - -  
2:40 AM 68.0 °F 44.6 °F 43% 29.86 in 2.5 mi North 5.8 mph - N/A   Smoke
3:10 AM 68.0 °F 41.0 °F 37% 29.86 in 2.5 mi NNE 5.8 mph - N/A   Smoke
4:10 AM 66.2 °F 42.8 °F 43% 29.86 in 2.5 mi NNE 4.6 mph - N/A   Smoke
4:40 AM 66.2 °F 37.4 °F 35% 29.86 in 2.5 mi North 4.6 mph - N/A   Smoke
5:10 AM 64.4 °F 37.4 °F 37% 29.86 in 2.5 mi NE 5.8 mph - N/A   Smoke
5:30 AM 62 °F 49 °F 52% 29.88 in 2 mi NW 3.5 mph - -  
5:40 AM 62.6 °F 41.0 °F 45% 29.86 in 2.5 mi NNE 4.6 mph - N/A   Smoke
6:40 AM 60.8 °F 44.6 °F 55% 29.89 in 1.9 mi ENE 4.6 mph - N/A   Smoke
7:10 AM 62.6 °F 42.8 °F 48% 29.92 in 1.9 mi NE 5.8 mph - N/A   Smoke
7:40 AM 64.4 °F 44.6 °F 49% 29.95 in 1.9 mi NW 6.9 mph - N/A   Smoke
8:10 AM 69.8 °F 41.0 °F 35% 29.95 in 1.6 mi North 2.3 mph - N/A   Smoke
8:30 AM 73 °F 45 °F 25% 29.96 in 2 mi Calm Calm - -  
8:40 AM 73.4 °F 42.8 °F 33% 29.95 in 1.6 mi Calm Calm - N/A   Smoke
9:10 AM 78.8 °F 39.2 °F 24% 29.95 in 1.6 mi Calm Calm - N/A   Smoke
9:40 AM 84.2 °F 41.0 °F 22% 29.95 in 1.6 mi NE 3.5 mph - N/A   Smoke
10:10 AM 87.8 °F 35.6 °F 16% 29.95 in 1.6 mi East 5.8 mph - N/A   Smoke
10:40 AM 89.6 °F 35.6 °F 15% 29.95 in 1.9 mi NE 4.6 mph - N/A   Smoke
11:10 AM 93.2 °F 39.2 °F 15% 29.95 in 2.5 mi NE 3.5 mph - N/A   Smoke
11:30 AM 92 °F 42 °F 10% 29.96 in 2 mi NNW 3.5 mph - -  
12:10 PM 98.6 °F 37.4 °F 12% 29.92 in 3.1 mi North 5.8 mph - N/A   Smoke
12:40 PM 100.4 °F 28.4 °F 8% 29.92 in 3.1 mi NNW 4.6 mph - N/A   Smoke
1:10 PM 100.4 °F 28.4 °F 8% 29.89 in 3.1 mi NNW 4.6 mph - N/A   Smoke
1:40 PM 104.0 °F 30.2 °F 8% 29.86 in 3.7 mi NNW 4.6 mph - N/A   Unknown
2:10 PM 104.0 °F 23.0 °F 6% 29.86 in 3.7 mi West 5.8 mph - N/A   Unknown
2:30 PM 100 °F 30 °F 4% 29.89 in 2 mi NNE 3.5 mph - -  
3:10 PM 104.0 °F 24.8 °F 6% 29.83 in 3.7 mi WSW 5.8 mph - N/A   Unknown
3:40 PM 104.0 °F 26.6 °F 7% 29.80 in 3.7 mi ENE 4.6 mph - N/A   Unknown
4:10 PM 104.0 °F 28.4 °F 7% 29.80 in 3.7 mi West 5.8 mph - N/A   Unknown
4:40 PM 104.0 °F 28.4 °F 7% 29.80 in 3.7 mi NNW 5.8 mph - N/A   Unknown
5:10 PM 104.0 °F 28.4 °F 7% 29.80 in 3.7 mi WNW 4.6 mph - N/A   Unknown
5:30 PM 100 °F 32 °F 4% 29.82 in 2 mi West 3.5 mph - -  
5:40 PM 104.0 °F 30.2 °F 8% 29.80 in 3.7 mi West 4.6 mph - N/A   Unknown
6:10 PM 102.2 °F 32.0 °F 9% 29.80 in 3.7 mi NW 4.6 mph - N/A   Unknown
6:40 PM 98.6 °F 32.0 °F 10% 29.80 in 3.7 mi NW 4.6 mph - N/A   Unknown
7:40 PM 89.6 °F 37.4 °F 16% 29.83 in 2.5 mi NNW 4.6 mph - N/A   Smoke
8:10 PM 89.6 °F 39.2 °F 17% 29.83 in 2.5 mi NNE 3.5 mph - N/A   Smoke
8:30 PM 79 °F 47 °F 22% 29.85 in 2 mi Calm Calm - -  
8:40 PM 84.2 °F 37.4 °F 19% 29.86 in 2.5 mi NNE 3.5 mph - N/A   Smoke
9:10 PM 82.4 °F 37.4 °F 20% 29.86 in 2.5 mi NNE 3.5 mph - N/A   Smoke
9:40 PM 80.6 °F 42.8 °F 26% 29.86 in 2.5 mi North 3.5 mph - N/A   Smoke
10:10 PM 77.0 °F 46.4 °F 34% 29.86 in 2.5 mi NNE 3.5 mph - N/A   Smoke
10:40 PM 75.2 °F 46.4 °F 36% 29.89 in 2.5 mi North 3.5 mph - N/A   Smoke
11:10 PM 73.4 °F 46.4 °F 38% 29.89 in 2.5 mi North 3.5 mph - N/A   Smoke
11:30 PM 69 °F 49 °F 39% 29.89 in 2 mi Calm Calm - -  
11:40 PM 73.4 °F 44.6 °F 36% 29.89 in 2.5 mi Calm Calm - N/A   Smoke